Regional Weather Roundup
Issued by NWS State College, PA

Home | Current Version | Previous Version | Graphics & Text | Print | Product List | Glossary Off
Versions: 1 2 3 4 5 6 7 8 9 10 11 12 13 14 15 16 17 18 19 20 21 22 23 24 25 26 27 28 29 30 31 32 33 34 35 36 37 38 39 40 41 42 43 44 45 46 47 48 49 50

000
ASUS41 KCTP 031310
RWRCTP

REGIONAL WEATHER ROUNDUP
NATIONAL WEATHER SERVICE STATE COLLEGE PA
800 AM EST TUE MAR 03 2015

Note: "fair" indicates few or no clouds below 12,000 feet with no
significant weather and/or obstructions to visibility.

* = STATION THAT DOES NOT REPORT PRECIPITATION /E.G. RAIN...SNOW...ETC/
    THUNDER OR FOG.

PAZ002>004-007>009-013>016-020>023-029>032-031400-
WESTERN PENNSYLVANIA

CITY           SKY/WX    TMP DP  RH WIND       PRES   REMARKS
ERIE           CLOUDY    20   8  60 SE13      30.19F WCI   7
MEADVILLE        N/A     18   8  65 VRB7      30.15F WCI   9
FRANKLIN*      CLOUDY    16   7  67 SE9       30.19F WCI   4
NEW CASTLE     FAIR      20  11  68 E3        30.20F
BEAVER COUNTY  CLOUDY    21  12  68 SE7       30.18F WCI  13
BUTLER*        CLOUDY    19  10  68 SE9       30.21F WCI   9
PITTSBURGH INT CLOUDY    22  14  71 SE8       30.19F WCI  12
PITTSBURGH     CLOUDY    22  12  65 E7        30.19F WCI  13
INDIANA*       CLOUDY    21  14  73 E7        30.26F WCI  13
LATROBE        CLOUDY    27  16  63 SE9       30.24F
WASHINGTON CO* CLOUDY    25  16  68 SE5       30.21F
$$

PAZ004>006-010>012-017>019-024>028-033>037-041-042-045-046-049>053-031400-
CENTRAL PENNSYLVANIA

CITY           SKY/WX    TMP DP  RH WIND       PRES   REMARKS
BRADFORD       CLOUDY    12   8  84 SE6       30.17F WCI   3
DUBOIS         CLOUDY    15   8  73 SE12      30.20F WCI   2
CLEARFIELD     CLOUDY    12   7  80 NE7       30.25F WCI   1
JOHNSTOWN      CLOUDY    19  11  70 S9        30.18F WCI   8
ALTOONA        CLOUDY    19   9  65 SE3       30.31S
STATE COLLEGE  CLOUDY    16  10  79 CALM      30.32F
WILLIAMSPORT   CLOUDY    16   7  67 CALM      30.40S
SELINSGROVE    CLOUDY    19  12  74 NE3       30.41S
FT INDIANTOWN  CLOUDY    22   9  58 CALM      30.40F
CAPITAL CITY   CLOUDY    23  11  60 E3        30.41F
HARRISBURG     CLOUDY    24  11  57 SE5       30.40F
YORK           CLOUDY    24  10  55 SE3       30.40S
$$

PAZ038>040-043-044-047-048-054-055-060>062-067>071-031400-
EASTERN PENNSYLVANIA

CITY           SKY/WX    TMP DP  RH WIND       PRES   REMARKS
SCRANTON       PTSUNNY   15   6  67 CALM      30.37R
MOUNT POCONO   PTSUNNY   12   6  77 CALM      30.29R
ALLENTOWN      PTSUNNY   18   9  68 CALM      30.43R
QUAKERTOWN*    CLOUDY    19  10  68 CALM      30.42S
READING        CLOUDY    22  10  60 CALM      30.43R
LANCASTER      CLOUDY    22  12  65 CALM      30.42R
COATESVILLE    CLOUDY    25  14  63 CALM      30.41R
POTTSTOWN      CLOUDY    23  10  57 CALM      30.45R
BLUE BELL      PTSUNNY   27  12  54 CALM      30.44R
DOYLESTOWN     PTSUNNY   20  10  65 CALM      30.42R
WILLOW GROVE   NOT AVBL
NORTH PHILA    PTSUNNY   27   9  46 VRB5      30.47R
PHILADELPHIA   CLOUDY    27  10  49 N3        30.48R
$$


USA.gov is the U.S. government's official web portal to all federal, state and local government web resources and services.